AMX161 MMGL-MMAA

Flight info

Callsign AMX161
Flight time N/A
Altitude 35000
Route MMGL/29R 2034N10326W EMIRI ZIH J1 AVURO AVURO1B
Aircraft B738/M-SDE2E3FGHIRWXY/LB1

Departure

Time 2026-05-06 02:50
Airport Guadalajara International Airport (MMGL)

Arrival

Time N/A
Airport General Juan N. Álvarez International Airport (MMAA)
Time Latitude Longitude Altitude Speed Heading
2026-05-06 02:50 20.37091 -103.24946 18224 ft 401 kts 127°
2026-05-06 02:50 20.35397 -103.22597 18898 ft 403 kts 127°
2026-05-06 02:51 20.33656 -103.20222 19468 ft 408 kts 128°
2026-05-06 02:51 20.31854 -103.17880 20076 ft 413 kts 130°
2026-05-06 02:51 20.29977 -103.15543 20672 ft 417 kts 131°
2026-05-06 02:51 20.28048 -103.13199 21253 ft 422 kts 131°
2026-05-06 02:52 20.26111 -103.10875 21866 ft 425 kts 131°
2026-05-06 02:52 20.24122 -103.08500 22401 ft 430 kts 132°
2026-05-06 02:52 20.22117 -103.06113 22961 ft 434 kts 132°
2026-05-06 02:52 20.20112 -103.03725 23506 ft 439 kts 132°
2026-05-06 02:53 20.18051 -103.01273 24015 ft 444 kts 132°
2026-05-06 02:53 20.16000 -102.98830 24562 ft 447 kts 132°
2026-05-06 02:53 20.13912 -102.96345 25023 ft 452 kts 132°
2026-05-06 02:53 20.11808 -102.93842 25562 ft 455 kts 132°
2026-05-06 02:54 20.09690 -102.91320 26006 ft 460 kts 132°
2026-05-06 02:54 20.07567 -102.88789 26519 ft 463 kts 132°
2026-05-06 02:54 20.05426 -102.86240 26975 ft 467 kts 132°
2026-05-06 02:54 20.03254 -102.83655 27517 ft 469 kts 133°
2026-05-06 02:55 20.01070 -102.81056 27965 ft 473 kts 133°
2026-05-06 02:55 19.98866 -102.78436 28389 ft 476 kts 133°
2026-05-06 02:55 19.96666 -102.75825 28787 ft 481 kts 133°
2026-05-06 02:55 19.94402 -102.73136 29222 ft 484 kts 133°
2026-05-06 02:56 19.92156 -102.70464 29643 ft 488 kts 132°
2026-05-06 02:56 19.89890 -102.67773 30099 ft 490 kts 132°
2026-05-06 02:56 19.87640 -102.65097 30840 ft 485 kts 132°
2026-05-06 02:56 19.85398 -102.62434 31383 ft 484 kts 132°
2026-05-06 02:57 19.83133 -102.59795 31902 ft 484 kts 134°
2026-05-06 02:57 19.80761 -102.57279 32444 ft 482 kts 139°
2026-05-06 02:57 19.78131 -102.54990 33003 ft 479 kts 145°
2026-05-06 02:57 19.75350 -102.53053 33505 ft 477 kts 151°
2026-05-06 02:58 19.72369 -102.51422 34106 ft 473 kts 157°
2026-05-06 02:58 19.69391 -102.50055 34955 ft 463 kts 159°
2026-05-06 02:58 19.66391 -102.48761 35254 ft 465 kts 160°
2026-05-06 02:59 19.60358 -102.46138 35266 ft 472 kts 159°
2026-05-06 02:59 19.54332 -102.43368 35271 ft 469 kts 158°
2026-05-06 03:00 19.48383 -102.40505 35266 ft 469 kts 157°
2026-05-06 03:00 19.42432 -102.37579 35267 ft 469 kts 157°
2026-05-06 03:01 19.36534 -102.34654 35255 ft 468 kts 157°
2026-05-06 03:01 19.30607 -102.31701 35238 ft 468 kts 156°
2026-05-06 03:02 19.24690 -102.28746 35213 ft 468 kts 156°
2026-05-06 03:02 19.18757 -102.25792 35180 ft 469 kts 156°
2026-05-06 03:03 19.12855 -102.22856 35116 ft 470 kts 156°
2026-05-06 03:03 19.06922 -102.19911 35061 ft 468 kts 156°
2026-05-06 03:04 19.00995 -102.16967 34984 ft 468 kts 156°
2026-05-06 03:04 18.95118 -102.14045 34957 ft 468 kts 156°
2026-05-06 03:05 18.89209 -102.11110 34950 ft 469 kts 156°
2026-05-06 03:05 18.83295 -102.08184 34940 ft 468 kts 156°
2026-05-06 03:06 18.77379 -102.05254 34929 ft 468 kts 156°
2026-05-06 03:06 18.71448 -102.02316 34925 ft 467 kts 156°
2026-05-06 03:07 18.65581 -101.99410 34924 ft 467 kts 156°
2026-05-06 03:07 18.59703 -101.96433 34935 ft 467 kts 151°
2026-05-06 03:08 18.54432 -101.92320 34954 ft 470 kts 139°
2026-05-06 03:08 18.49616 -101.87664 34962 ft 470 kts 137°
2026-05-06 03:09 18.44845 -101.82960 34973 ft 469 kts 137°
2026-05-06 03:09 18.40010 -101.78310 34976 ft 469 kts 138°
2026-05-06 03:10 18.35121 -101.73705 34969 ft 467 kts 139°
2026-05-06 03:10 18.30259 -101.69175 34976 ft 468 kts 139°
2026-05-06 03:11 18.25355 -101.64623 34981 ft 467 kts 139°
2026-05-06 03:11 18.20452 -101.60083 34990 ft 468 kts 139°
2026-05-06 03:12 18.15567 -101.55561 35001 ft 468 kts 139°
2026-05-06 03:12 18.10661 -101.51021 35012 ft 467 kts 139°
2026-05-06 03:13 18.05764 -101.46497 35047 ft 466 kts 139°
2026-05-06 03:13 18.00894 -101.42002 35074 ft 465 kts 139°
2026-05-06 03:14 17.95997 -101.37482 35092 ft 465 kts 139°
2026-05-06 03:14 17.91116 -101.32978 35114 ft 467 kts 139°
2026-05-06 03:15 17.86203 -101.28449 35091 ft 466 kts 139°
2026-05-06 03:15 17.81334 -101.23965 35088 ft 466 kts 139°
2026-05-06 03:16 17.76436 -101.19456 35079 ft 465 kts 139°
2026-05-06 03:16 17.71557 -101.14970 35065 ft 465 kts 139°
2026-05-06 03:17 17.66687 -101.10497 35077 ft 464 kts 139°
2026-05-06 03:17 17.64268 -101.08273 34882 ft 458 kts 139°
2026-05-06 03:17 17.61897 -101.06094 34541 ft 450 kts 139°
2026-05-06 03:17 17.59552 -101.03942 34082 ft 445 kts 139°
2026-05-06 03:18 17.57244 -101.01824 33562 ft 436 kts 139°
2026-05-06 03:18 17.54970 -100.99740 33041 ft 428 kts 139°
2026-05-06 03:18 17.52763 -100.97716 32552 ft 421 kts 139°
2026-05-06 03:18 17.50564 -100.95699 32034 ft 415 kts 139°
2026-05-06 03:19 17.48393 -100.93707 31520 ft 416 kts 139°
2026-05-06 03:19 17.46201 -100.91697 30982 ft 427 kts 139°
2026-05-06 03:19 17.43948 -100.89635 30402 ft 434 kts 139°
2026-05-06 03:19 17.41674 -100.87554 29832 ft 429 kts 139°
2026-05-06 03:20 17.37264 -100.83519 28727 ft 416 kts 140°
2026-05-06 03:20 17.35107 -100.81544 28194 ft 410 kts 139°
2026-05-06 03:20 17.32977 -100.79597 27671 ft 403 kts 139°
2026-05-06 03:21 17.30881 -100.77681 27144 ft 397 kts 139°
2026-05-06 03:21 17.28821 -100.75799 26624 ft 392 kts 139°
2026-05-06 03:21 17.26775 -100.73930 26107 ft 386 kts 139°
2026-05-06 03:21 17.24782 -100.72088 25598 ft 380 kts 136°
2026-05-06 03:22 17.23011 -100.70094 25113 ft 374 kts 127°
2026-05-06 03:22 17.21523 -100.67883 24632 ft 368 kts 120°
2026-05-06 03:22 17.20254 -100.65597 24163 ft 363 kts 117°
2026-05-06 03:22 17.19067 -100.63243 23708 ft 370 kts 115°
2026-05-06 03:23 17.17892 -100.60821 23213 ft 379 kts 115°
2026-05-06 03:23 17.16713 -100.58375 22695 ft 379 kts 115°
2026-05-06 03:23 17.15534 -100.55940 22204 ft 372 kts 115°
2026-05-06 03:23 17.14368 -100.53552 21746 ft 365 kts 114°
2026-05-06 03:24 17.13223 -100.51208 21277 ft 358 kts 115°
2026-05-06 03:24 17.12113 -100.48936 20810 ft 353 kts 115°
2026-05-06 03:24 17.11004 -100.46670 20342 ft 347 kts 115°
2026-05-06 03:24 17.09923 -100.44460 19904 ft 341 kts 115°
2026-05-06 03:25 17.08845 -100.42261 19470 ft 335 kts 115°
2026-05-06 03:25 17.07798 -100.40127 19017 ft 330 kts 115°
2026-05-06 03:25 17.06761 -100.38013 18598 ft 324 kts 115°
2026-05-06 03:25 17.05748 -100.35944 18200 ft 320 kts 115°
2026-05-06 03:26 17.04725 -100.33853 17777 ft 329 kts 115°
2026-05-06 03:26 17.03665 -100.31689 17309 ft 336 kts 115°
2026-05-06 03:26 17.02609 -100.29539 16860 ft 333 kts 115°
2026-05-06 03:26 17.01555 -100.27403 16444 ft 326 kts 116°
2026-05-06 03:27 17.00521 -100.25308 15986 ft 320 kts 115°
2026-05-06 03:27 16.99527 -100.23272 15568 ft 313 kts 114°
2026-05-06 03:27 16.98693 -100.21209 15164 ft 308 kts 109°
2026-05-06 03:27 16.98009 -100.19099 14756 ft 302 kts 106°
2026-05-06 03:28 16.97401 -100.17031 14352 ft 296 kts 106°
2026-05-06 03:28 16.96808 -100.15002 13964 ft 292 kts 106°
2026-05-06 03:28 16.96200 -100.12968 13581 ft 300 kts 107°
2026-05-06 03:28 16.95554 -100.10857 13167 ft 308 kts 107°
2026-05-06 03:29 16.94895 -100.08728 12758 ft 306 kts 107°
2026-05-06 03:29 16.94239 -100.06623 12339 ft 301 kts 107°
2026-05-06 03:29 16.93600 -100.04576 11949 ft 294 kts 107°
2026-05-06 03:29 16.92975 -100.02572 11563 ft 289 kts 107°
2026-05-06 03:30 16.92364 -100.00611 11180 ft 284 kts 107°
2026-05-06 03:30 16.91758 -99.98665 10825 ft 281 kts 107°
2026-05-06 03:30 16.91153 -99.96722 10419 ft 283 kts 107°
2026-05-06 03:30 16.90546 -99.94775 10051 ft 283 kts 107°
2026-05-06 03:31 16.89946 -99.92849 9868 ft 275 kts 107°
2026-05-06 03:31 16.89360 -99.90969 9679 ft 273 kts 107°
2026-05-06 03:31 16.88768 -99.89068 9254 ft 279 kts 107°
2026-05-06 03:31 16.88164 -99.87128 8888 ft 279 kts 107°
2026-05-06 03:32 16.87565 -99.85210 8532 ft 279 kts 107°
2026-05-06 03:32 16.86958 -99.83275 8191 ft 279 kts 107°
2026-05-06 03:32 16.86359 -99.81371 7831 ft 279 kts 107°
2026-05-06 03:32 16.85750 -99.79430 7451 ft 279 kts 107°
2026-05-06 03:33 16.85153 -99.77520 7099 ft 278 kts 107°
2026-05-06 03:33 16.84553 -99.75596 6750 ft 277 kts 107°
2026-05-06 03:33 16.83965 -99.73711 6403 ft 276 kts 107°
2026-05-06 03:33 16.83367 -99.71802 6049 ft 276 kts 107°
2026-05-06 03:34 16.82770 -99.69893 5694 ft 275 kts 107°
2026-05-06 03:34 16.82184 -99.68022 5343 ft 274 kts 107°
2026-05-06 03:34 16.81586 -99.66116 4981 ft 273 kts 107°
2026-05-06 03:34 16.81007 -99.64267 4648 ft 272 kts 107°
2026-05-06 03:35 16.80418 -99.62388 4288 ft 271 kts 107°
2026-05-06 03:35 16.79840 -99.60551 4093 ft 263 kts 108°
2026-05-06 03:35 16.79155 -99.58809 4012 ft 253 kts 118°
2026-05-06 03:35 16.77994 -99.57464 3930 ft 253 kts 150°
2026-05-06 03:36 16.76314 -99.56958 3803 ft 259 kts 179°
2026-05-06 03:36 16.74552 -99.57298 3724 ft 251 kts 199°
2026-05-06 03:36 16.72934 -99.58001 3705 ft 250 kts 212°
2026-05-06 03:36 16.71695 -99.59233 3711 ft 250 kts 243°
2026-05-06 03:37 16.71298 -99.60959 3725 ft 247 kts 274°
2026-05-06 03:37 16.71647 -99.62718 3638 ft 249 kts 284°
2026-05-06 03:37 16.72073 -99.64402 3507 ft 224 kts 287°
2026-05-06 03:37 16.72516 -99.65636 4215 ft 150 kts 296°
2026-05-06 03:38 16.72975 -99.66612 3697 ft 164 kts 297°
2026-05-06 03:38 16.73515 -99.67726 3516 ft 187 kts 297°
2026-05-06 03:38 16.74069 -99.68940 4309 ft 184 kts 292°
2026-05-06 03:38 16.74500 -99.70219 4559 ft 203 kts 290°
2026-05-06 03:39 16.75092 -99.71721 4439 ft 234 kts 298°
2026-05-06 03:39 16.75810 -99.73217 5169 ft 234 kts 292°
2026-05-06 03:39 16.76172 -99.74992 5094 ft 267 kts 276°
2026-05-06 03:39 16.76343 -99.76978 4706 ft 280 kts 274°
2026-05-06 03:40 16.76100 -99.78998 4283 ft 283 kts 250°
2026-05-06 03:40 16.75027 -99.80714 3980 ft 280 kts 223°
2026-05-06 03:40 16.73391 -99.81689 3911 ft 267 kts 196°
2026-05-06 03:40 16.71596 -99.81991 3909 ft 256 kts 186°
2026-05-06 03:41 16.69837 -99.82120 3904 ft 253 kts 184°
2026-05-06 03:41 16.68060 -99.82237 3903 ft 254 kts 184°
2026-05-06 03:41 16.66283 -99.82361 3906 ft 255 kts 184°
2026-05-06 03:41 16.64505 -99.82488 3904 ft 256 kts 184°
2026-05-06 03:42 16.62709 -99.82617 3902 ft 256 kts 184°
2026-05-06 03:42 16.60941 -99.82721 3896 ft 255 kts 178°
2026-05-06 03:42 16.59222 -99.82284 3900 ft 257 kts 150°
2026-05-06 03:42 16.57902 -99.81058 3902 ft 255 kts 121°
2026-05-06 03:43 16.57188 -99.79366 3917 ft 253 kts 106°
2026-05-06 03:43 16.56682 -99.77561 3910 ft 267 kts 104°
2026-05-06 03:43 16.56465 -99.75627 3884 ft 272 kts 80°
2026-05-06 03:43 16.57175 -99.73843 3920 ft 270 kts 53°
2026-05-06 03:44 16.58306 -99.72271 3897 ft 273 kts 53°
2026-05-06 03:44 16.59265 -99.70568 3896 ft 272 kts 65°
2026-05-06 03:44 16.59954 -99.68716 3912 ft 273 kts 70°
2026-05-06 03:44 16.60566 -99.66852 3909 ft 274 kts 70°
2026-05-06 03:45 16.61197 -99.64977 3909 ft 272 kts 69°
2026-05-06 03:45 16.61859 -99.63177 3898 ft 258 kts 64°
2026-05-06 03:45 16.62761 -99.61637 3895 ft 241 kts 45°
2026-05-06 03:45 16.64115 -99.60702 3775 ft 233 kts 19°
2026-05-06 03:46 16.65671 -99.60205 3477 ft 233 kts 14°
2026-05-06 03:46 16.67229 -99.59757 3209 ft 231 kts 13°
2026-05-06 03:46 16.68808 -99.59522 2970 ft 228 kts 357°
2026-05-06 03:46 16.70297 -99.60007 2771 ft 225 kts 324°
2026-05-06 03:47 16.71327 -99.61221 2375 ft 227 kts 295°
2026-05-06 03:47 16.71820 -99.62715 2038 ft 212 kts 286°
2026-05-06 03:47 16.72231 -99.64144 1774 ft 199 kts 287°
2026-05-06 03:47 16.72638 -99.65475 1512 ft 187 kts 287°
2026-05-06 03:48 16.73022 -99.66718 1280 ft 172 kts 288°
2026-05-06 03:48 16.73413 -99.67820 1154 ft 157 kts 289°
2026-05-06 03:48 16.73788 -99.68919 896 ft 164 kts 287°
2026-05-06 03:48 16.74140 -99.70061 601 ft 166 kts 286°
2026-05-06 03:49 16.74481 -99.71199 410 ft 160 kts 285°
2026-05-06 03:49 16.74799 -99.72327 244 ft 164 kts 283°
2026-05-06 03:49 16.75108 -99.73460 50 ft 163 kts 286°
2026-05-06 03:49 16.75444 -99.74564 28 ft 158 kts 288°
2026-05-06 03:50 16.75755 -99.75647 29 ft 151 kts 291°
2026-05-06 03:50 16.76090 -99.76511 29 ft 111 kts 284°
2026-05-06 03:50 16.76221 -99.77203 29 ft 86 kts 278°